Regional Weather Roundup
Issued by NWS Northern Indiana

Home | Current Version | Previous Version | Text Only | Print | Product List | Glossary On
Versions: 1 2 3 4 5 6 7 8 9 10 11 12 13 14 15 16 17 18 19 20 21 22 23 24 25 26 27 28 29 30 31 32 33 34 35 36 37 38 39 40 41 42 43 44 45 46 47 48 49 50
000
ASUS43 KIWX 290610
RWRIWX

KIWX WEATHER ROUNDUP
NATIONAL WEATHER SERVICE NORTHERN INDIANA
100 AM EST THU JAN 29 2015

NOTE: "FAIR" INDICATES FEW OR NO CLOUDS BELOW 12,000 FEET WITH NO
SIGNIFICANT WEATHER AND/OR OBSTRUCTIONS TO VISIBILITY.

* THESE STATIONS ARE NOT UNDER NWS QUALITY CONTROL. THEY ALSO MAY NOT
  REPORT WEATHER SUCH AS PRECIPITATION OR FOG.

INZ001>027-290700-
NORTHERN INDIANA

CITY           SKY/WX    TMP DP  RH WIND       PRES   REMARKS
GARY*          CLOUDY    36  18  48 S14G22    29.85F
VALPARAISO     MIX PCPN  33  22  63 SE15      29.87F WCI  23
6HR MIN TEMP:  30; 6HR MAX TEMP:  33; 6HR PCP: TRACE;

MICHIGAN CITY* CLOUDY    32  18  55 S10G20    29.87F WCI  24
LAPORTE*       CLOUDY    34  23  64 S10G18    29.89F WCI  26
6HR MIN TEMP:  31; 6HR MAX TEMP:  34;

KNOX*          CLOUDY    33   7  34 SE16G23   29.89F WCI  22
6HR MIN TEMP:  -9; 6HR MAX TEMP:  81;

SOUTH BEND     MIX PCPN  32  22  66 S14       29.93F WCI  22
6HR MIN TEMP:  28; 6HR MAX TEMP:  32; 6HR PCP: TRACE;

GOSHEN         CLOUDY    30  20  66 SE15      29.95F WCI  19
6HR MIN TEMP:  26; 6HR MAX TEMP:  30;

MONTICELLO*    CLOUDY    33  22  62 S9        29.93F WCI  26
6HR MIN TEMP:  32; 6HR MAX TEMP:  34;

LOGANSPORT*    CLOUDY    32  23  69 S14       29.95F WCI  22
ROCHESTER*     CLOUDY    34  23  64 S9        29.95F WCI  26
WARSAW*        CLOUDY    30  21  69 S5        29.96F WCI  25
ANGOLA*        PTCLDY    25  19  80 S10       29.99F WCI  15
FORT WAYNE     CLOUDY    30  21  69 SE13      30.00F WCI  20
6HR MIN TEMP:  25; 6HR MAX TEMP:  30;

HUNTINGTON*    CLOUDY    31  17  57 S8        29.99S WCI  23
6HR MIN TEMP:  26; 6HR MAX TEMP:  31;

PERU/GRISSOM   CLOUDY    33  22  65 S14       29.95F WCI  23
6HR MIN TEMP:  29; 6HR MAX TEMP:  33;

MARION*        CLOUDY    32  21  64 S15       29.98S WCI  22
6HR MIN TEMP:  -2; 6HR MAX TEMP:  46;


$$
INZ028>050-290700-
CENTRAL INDIANA

CITY           SKY/WX    TMP DP  RH WIND       PRES   REMARKS
LAFAYETTE      CLOUDY    35  19  52 S8        29.92F WCI  29
6HR MIN TEMP:  32; 6HR MAX TEMP:  35;

KOKOMO*        CLOUDY    32  21  64 S20G26    29.96F WCI  20
6HR MIN TEMP:  30; 6HR MAX TEMP:  32;

MUNCIE*        CLOUDY    33  20  58 S17G31    29.97F WCI  22
6HR MIN TEMP:  30; 6HR MAX TEMP:  33;

INDIANAPOLIS   CLOUDY    32  18  56 SE12      29.99F WCI  23
6HR MIN TEMP:  30; 6HR MAX TEMP:  32;


$$
MIZ043>046-050>051-056>058-064>065-071>073-077>080-290700-
SOUTHWEST LOWER MICHIGAN

CITY           SKY/WX    TMP DP  RH WIND       PRES   REMARKS
BATTLE CREEK   CLOUDY    28  17  63 SE12      29.96F WCI  18
6HR MIN TEMP:  26; 6HR MAX TEMP:  28;

BENTON HARBOR  CLOUDY    31  20  63 S12G22    29.90F WCI  22
6HR MIN TEMP:  27; 6HR MAX TEMP:  31;

COLDWATER*     CLOUDY    28  18  68 S8G16     29.99S WCI  19
6HR MIN TEMP:  23; 6HR MAX TEMP:  28;

HILLSDALE*     CLOUDY    26  17  69 S12G18    29.99F WCI  15
6HR MIN TEMP:  22; 6HR MAX TEMP:  26;

HOLLAND        MOCLDY    29  18  63 SE14      29.91F WCI  18
6HR MIN TEMP:  29; 6HR MAX TEMP:  30;

GRAND RAPIDS   CLOUDY    27  16  63 SE12      29.94F WCI  17
6HR MIN TEMP:  27; 6HR MAX TEMP:  28;

KALAMAZOO      CLOUDY    28  17  63 S12       29.95F WCI  18
6HR MIN TEMP:  25; 6HR MAX TEMP:  28;

STURGIS*       CLOUDY    27  19  74 S15       29.96F WCI  15
THREE RIVERS*  FAIR      28  19  67 S10       29.95F WCI  19

$$
OHZ001>008-015>018-024>025-290700-
NORTHWEST OHIO

CITY           SKY/WX    TMP DP  RH WIND       PRES   REMARKS
WAUSEON*       MOCLDY    25  18  74 SE15      30.04F WCI  12
DEFIANCE       MOCLDY    29  18  63 S8G18     30.04F WCI  21
6HR MIN TEMP:  24; 6HR MAX TEMP:  29;

FINDLAY        CLOUDY    27  17  66 S17       30.06F WCI  14
6HR MIN TEMP:  22; 6HR MAX TEMP:  27;

TOLEDO EXPRESS CLOUDY    25  16  68 S6        30.07F WCI  18
6HR MIN TEMP:  21; 6HR MAX TEMP:  25;

TOLEDO METCALF CLOUDY    27  16  63 S16       30.08F WCI  15
6HR MIN TEMP:  22; 6HR MAX TEMP:  27;

LIMA           MOCLDY    29  18  63 S18       30.05F WCI  16
6HR MIN TEMP:  24; 6HR MAX TEMP:  29;


$$
AND FOR LAKE MICHIGAN COASTAL AND OPEN LAKE BUOY OBSERVATIONS

STATION/POSITION TEMP    WIND        PRES    VSBY  WAVE
                 AIR SEA DIR/SP/G                  HT/PER
                 (F)     (DEG/KT/KT) (MB)    (MI)  (FT/S)
CALUMET HARBOR    35     170/ 11/ 20   N/A
MICHIGAN CITY     34     140/ 15/ 22   N/A
SAINT JOSEPH      33     150/  5/ 13 1012.5F

$$
&&


USA.gov is the U.S. government's official web portal to all federal, state and local government web resources and services.